Weather Roundup
Issued by NWS

Home | Current Version | Previous Version | Text Only | Print | Product List | Glossary On
Versions: 1 2 3 4 5 6 7 8 9 10 11 12 13 14 15 16 17 18 19 20 21 22 23 24 25 26 27 28 29 30 31 32 33 34 35 36 37 38 39 40 41 42 43 44 45 46 47 48 49 50
000
NZUS93 KARX 010359
HRRWXR

CURRENT HOURLY OBSERVATIONS ACROSS
MUCH OF THE UPPER MISSISSIPPI VALLEY
NATIONAL WEATHER SERVICE LA CROSSE WI
1100 PM CDT FRI OCT 31 2014


...SOUTHEAST MINNESOTA...


CITY           SKY/WX    TMP DP  RH WIND       PRES   REMARKS
ROCHESTER      CLEAR     28  17  63 NE3       30.47R
ROCHESTER/MAYO FAIR      31  18  57 CALM      30.48S
WINONA         CLEAR     32  23  69 CALM      30.50R
AUSTIN         CLEAR     25  19  80 CALM      30.47S
ALBERT LEA     PTCLDY    25  19  80 CALM      30.47S
DODGE CENTER   PTCLDY    25  18  74 CALM      30.47S
PRESTON        CLEAR     26  18  71 CALM      30.47R
OWATONNA       CLEAR     19  18  93 CALM      30.47F
FARIBAULT      CLEAR     19  16  86 CALM      30.49S
$$

...ELSEWHERE IN MINNESOTA...


CITY           SKY/WX    TMP DP  RH WIND       PRES   REMARKS
MINNEAPOLIS    PTCLDY    29  18  63 CALM      30.50S
INTNL FALLS    CLEAR     22  15  75 SE5       30.40F WCI  16
DULUTH         CLEAR     25  15  66 S3        30.44S
RED WING       CLEAR     25  18  74 NW3       30.49R
REDWOOD FALLS  PTCLDY    25  14  63 SE8       30.46S WCI  16
MANKATO        CLEAR     30  12  47 E6        30.48F WCI  24
WORTHINGTON    MOCLDY    23  12  63 SE7       30.44S WCI  15
FAIRMONT       PTCLDY    21  10  63 CALM      30.48R
$$

...SOUTHWEST WISCONSIN...


CITY           SKY/WX    TMP DP  RH WIND       PRES   REMARKS
LA CROSSE      CLEAR     32  18  56 NE6       30.49S WCI  26
PRAIRIE DU CHI CLEAR     33  19  56 CALM      30.48S
BOSCOBEL       CLEAR     22  17  81 CALM      30.48F
LONE ROCK      NOT AVBL
PLATTEVILLE    CLEAR     26  19  72 N7        30.45F WCI  19
FORT MC COY    CLEAR     28  19  70 NE6       30.49F WCI  21
VIROQUA        FAIR      28  20  74 N6        30.46S WCI  21
WIS DELLS      CLEAR     29  17  60 N5        30.46R WCI  24
$$

...ELSEWHERE IN WISCONSIN...


CITY           SKY/WX    TMP DP  RH WIND       PRES   REMARKS
MILWAUKEE      FLURRIES  35  19  52 N15G26    30.37S WCI  25
MADISON        PTCLDY    27  18  69 N7        30.45R WCI  19
GREEN BAY      CLOUDY    33  20  58 N12       30.45S WCI  24
EAU CLAIRE     CLEAR     20  16  84 CALM      30.48S
BLACK RVR FLS  FAIR      28  18  65 NE6       30.48S WCI  22
MEDFORD        CLEAR     25  19  78 NE3       30.46S
WAUSAU         CLEAR     28  18  66 N5        30.45S WCI  23
WIS RAPIDS     CLEAR     26  18  71 NE5       30.48S WCI  20
MARSHFIELD     CLEAR     28  19  69 N6        30.46S WCI  22
RICE LAKE      CLEAR     24  22  90 CALM      30.50R
$$

...NORTHEAST IOWA...


CITY           SKY/WX    TMP DP  RH WIND       PRES   REMARKS
DECORAH        CLEAR     30  18  59 NE5       30.46S WCI  25
MASON CITY     CLEAR     20  15  81 N3        30.49S
CHARLES CITY   CLEAR     25  19  80 N5        30.48R WCI  19
OELWEIN        CLEAR     27  19  74 N3        30.48R
$$

...ELSEWHERE IN IOWA...


CITY           SKY/WX    TMP DP  RH WIND       PRES   REMARKS
DES MOINES     CLEAR     33  18  53 NE5       30.48R WCI  29
IOWA CITY      CLEAR     33  21  61 N7        30.48R WCI  27
FORT DODGE     PTCLDY    23  16  74 CALM      30.49R
$$

...NORTHERN ILLINOIS...


CITY           SKY/WX    TMP DP  RH WIND       PRES   REMARKS
CHICAGO-OHARE  FLURRIES  34  24  67 N16       30.34S WCI  24
CHICAGO-MIDWAY FLURRIES  40  26  57 N21G32    30.32S WCI  30
MOLINE         CLEAR     33  19  56 CALM      30.45R
ROCKFORD       CLOUDY    35  18  49 N15G24    30.44R WCI  25
PEORIA         CLEAR     34  19  54 N6        30.40R WCI  29
$$

NOTE: "FAIR" INDICATES FEW OR NO CLOUDS BELOW 12,000 FEET WITH NO
SIGNIFICANT WEATHER AND/OR OBSTRUCTIONS TO VISIBILITY. WIND
SPEEDS ARE IN MILES-PER-HOUR.



USA.gov is the U.S. government's official web portal to all federal, state and local government web resources and services.